Mountain Home, AR

8:05 AM CST on December 07, 2019 (GMT -0600)
Baxter County Regional

Weather History for KBPK - October, 2019

Change the Weather History Date:

Tuesday, October 8, 2019

  Actual Average (WUND) Record (WUND)
Temperature  
Mean Temperature 58 °F -  
Max Temperature 72 °F - - (-1)
Min Temperature 45 °F - - (-1)
Degree Days  
Heating Degree Days 6    
Growing Degree Days 8 (Base 50)    
Moisture  
Dew Point 47 °F    
Average Humidity 75    
Maximum Humidity 100    
Minimum Humidity 37    
Precipitation  
Precipitation 0.00 in - - ()
Sea Level Pressure  
Sea Level Pressure 30.14 in    
Wind  
Wind Speed 1 mph (ESE)    
Max Wind Speed 7 mph    
Max Gust Speed -    
Visibility 10 miles    
Events      
Averages and records for this station are not official NWS values.
T = Trace of Precipitation, MM = Missing Value Source: NWS Daily Summary

Daily Weather History Graph

Daily Weather History Graph

Search for Another Location

Airport or City:

Astronomy

Oct. 08, 2019 Rise Set
Actual Time 7:10 AM CDT 6:43 PM CDT
Civil Twilight 6:44 AM CDT 7:09 PM CDT
Nautical Twilight 6:15 AM CDT 7:39 PM CDT
Astronomical Twilight 5:45 AM CDT 8:08 PM CDT
Moon 4:32 PM CDT (10/8) 2:11 AM CDT (10/8)
Length of Visible Light 12h 24m
Length of Day
11h 32m
Waxing Gibbous, 78% of the Moon is Illuminated
Oct 8
Waxing Gibbous
Oct 13
Full
Oct 21
Last Quarter
Oct 27
New
Nov 4
First Quarter

Hourly Weather History & Observations

Time (CDT) Temp. Dew Point Humidity Pressure Visibility Wind Dir Wind Speed Gust Speed Precip Events Conditions
12:53 AM 52.0 °F 46.0 °F 80% 30.18 in 10.0 mi Calm Calm - N/A   Clear
1:53 AM 50.0 °F 46.9 °F 89% 30.17 in 10.0 mi Calm Calm - N/A   Clear
2:53 AM 48.0 °F 46.0 °F 93% 30.17 in 10.0 mi Calm Calm - N/A   Clear
3:53 AM 46.9 °F 46.0 °F 97% 30.16 in 10.0 mi Calm Calm - N/A   Clear
4:53 AM 46.0 °F 45.0 °F 96% 30.17 in 10.0 mi Calm Calm - N/A   Clear
5:53 AM 46.0 °F 44.1 °F 93% 30.17 in 10.0 mi Calm Calm - N/A   Clear
6:53 AM 45.0 °F 44.1 °F 97% 30.19 in 10.0 mi Calm Calm - N/A   Clear
7:53 AM 46.0 °F 46.0 °F 100% 30.19 in 10.0 mi Calm Calm - N/A   Clear
8:38 AM 51.1 °F 48.9 °F 92% 30.21 in 10.0 mi Calm Calm - N/A   Scattered Clouds
8:53 AM 52.0 °F 51.1 °F 97% 30.20 in 10.0 mi Calm Calm - N/A   Partly Cloudy
9:53 AM 57.0 °F 53.1 °F 87% 30.21 in 10.0 mi Calm Calm - N/A   Clear
10:53 AM 62.1 °F 54.0 °F 75% 30.20 in 10.0 mi Calm Calm - N/A   Clear
11:53 AM 66.0 °F 48.9 °F 54% 30.19 in 10.0 mi Variable 3.5 mph - N/A   Clear
12:53 PM 69.1 °F 46.0 °F 44% 30.16 in 10.0 mi Variable 3.5 mph - N/A   Clear
1:53 PM 70.0 °F 46.0 °F 42% 30.12 in 10.0 mi SE 6.9 mph - N/A   Clear
3:53 PM 72.0 °F 44.1 °F 37% 30.08 in 10.0 mi East 4.6 mph - N/A   Clear
4:53 PM 72.0 °F 45.0 °F 38% 30.06 in 10.0 mi Calm Calm - N/A   Clear
5:53 PM 69.1 °F 46.0 °F 44% 30.06 in 10.0 mi ESE 3.5 mph - N/A   Clear
6:53 PM 60.1 °F 50.0 °F 69% 30.06 in 10.0 mi Calm Calm - N/A   Clear
7:53 PM 59.0 °F 48.0 °F 67% 30.06 in 10.0 mi Calm Calm - N/A   Clear
9:53 PM 57.9 °F 46.9 °F 67% 30.08 in 10.0 mi SSE 3.5 mph - N/A   Clear
10:53 PM 57.0 °F 46.0 °F 67% 30.07 in 10.0 mi Calm Calm - N/A   Clear
11:53 PM 51.1 °F 48.0 °F 89% 30.07 in 10.0 mi ESE 3.5 mph - N/A   Clear